Wind_Speed
38 38 39 39 39 39 39 40 40 39 39 40 41 40 40 41 41 40 40 40 41 41 41 40 40 40 40 41 42 43 44 43 41 39 38 36 34 31
40 40 40 40 40 40 40 41 41 41 40 40 42 42 42 42 42 41 40 40 40 41 41 41 40 41 41 41 41 42 43 43 42 40 39 37 35 33
39 39 40 40 40 41 41 41 41 41 41 40 42 42 42 42 42 42 41 41 41 41 41 41 40 40 40 42 42 42 43 43 43 42 41 39 37 34
37 38 38 39 40 41 41 41 41 41 41 41 41 42 41 41 42 42 42 42 41 41 41 41 40 40 40 41 42 43 43 44 42 42 42 40 38 35
35 36 36 37 38 39 40 41 41 41 41 41 41 41 42 42 41 42 42 43 42 42 42 41 41 41 41 41 42 42 42 43 42 42 41 41 39 36
34 35 35 36 36 37 38 39 40 40 40 41 41 41 41 42 42 41 42 43 43 42 42 41 40 41 41 41 41 42 42 42 42 42 41 41 39 37
34 34 34 34 34 35 37 38 39 39 40 40 40 41 41 41 42 42 41 42 43 42 42 42 41 41 42 41 40 41 41 41 42 42 40 40 39 38
33 33 33 33 33 34 35 36 38 38 39 40 40 41 41 41 42 42 41 41 42 42 42 42 41 41 41 41 40 41 42 41 42 42 41 40 40 40
33 33 33 33 32 33 33 35 36 38 39 40 40 40 41 41 42 42 42 42 42 42 43 42 41 40 41 41 42 42 43 42 42 42 42 42 41 40
32 32 32 32 32 33 33 34 35 37 39 40 40 41 42 42 42 42 43 42 42 42 43 42 41 40 40 41 43 43 42 42 42 42 43 42 42 41
32 32 31 31 32 33 33 34 35 37 38 39 39 40 41 42 42 42 43 43 42 42 42 42 42 42 41 40 41 43 43 43 43 43 44 43 43 42
32 31 31 31 31 31 31 32 32 34 35 36 37 38 40 41 42 42 42 43 43 43 42 41 41 42 41 41 40 41 42 44 44 45 45 45 44 43
31 31 31 30 30 29 29 30 30 31 32 34 35 36 38 39 41 42 42 43 43 44 43 42 42 42 41 41 40 40 40 42 44 45 46 46 45 44
31 30 30 30 29 28 28 28 29 29 30 31 33 34 35 37 38 40 42 43 44 44 44 42 41 43 42 40 39 39 40 41 42 43 45 47 46 44
30 30 29 28 27 27 27 27 27 27 28 29 30 31 32 34 37 38 40 42 44 44 44 43 41 41 42 40 39 39 39 41 42 43 44 48 48 45
29 29 28 27 27 26 26 25 25 24 26 27 28 29 31 33 34 37 38 40 43 44 44 43 41 40 41 41 40 39 39 39 41 43 43 47 48 45
29 28 27 26 25 24 23 22 22 22 22 24 26 27 29 31 32 34 37 38 41 42 43 43 42 40 40 40 41 40 41 40 40 41 42 44 46 46
29 27 26 25 23 22 20 20 19 19 20 21 22 25 27 30 32 33 35 37 38 40 41 42 41 41 40 40 40 40 41 40 40 41 42 45 46 46
28 26 24 23 22 20 18 17 16 17 17 18 20 23 26 28 30 32 34 35 37 38 39 41 41 40 39 40 40 40 41 40 40 41 42 45 46 45
27 25 23 21 19 18 17 15 15 15 15 16 18 20 23 26 28 30 33 34 36 37 38 39 38 38 38 38 39 40 40 39 40 41 41 44 45 45
25 24 22 20 19 17 16 15 14 13 13 15 16 18 21 23 26 29 32 34 35 35 36 36 36 37 39 38 38 39 40 39 39 40 42 43 44 44
24 23 21 19 17 16 14 13 12 11 12 13 14 16 19 21 24 28 30 32 34 34 34 35 35 36 37 37 37 39 39 38 38 38 40 42 42 43
22 22 20 18 16 14 13 12 11 11 10 11 13 15 16 19 23 26 28 31 32 33 33 34 35 36 36 37 36 37 39 39 38 38 38 40 40 41
Wind_Direction
285 283 280 277 275 272 270 268 266 264 263 261 259 257 254 252 250 248 246 244 242 242 242 241 239 238 237 235 234 234 233 232 232 232 233 235 235 235
285 283 280 277 275 272 270 268 266 264 262 260 258 256 254 252 250 248 245 243 242 240 240 240 239 239 237 234 234 233 231 231 231 232 232 233 234 234
286 283 281 277 274 271 269 267 266 264 261 259 258 256 254 252 249 247 245 243 241 240 239 239 240 238 236 234 233 233 231 231 232 231 230 231 230 231
288 285 281 278 275 271 269 267 265 263 261 258 256 255 254 252 249 247 244 242 241 239 238 238 237 237 235 234 232 231 231 231 231 230 228 227 228 228
291 287 284 280 276 272 269 267 264 262 260 257 255 254 253 251 249 246 244 242 241 239 237 236 236 235 234 234 232 229 230 230 229 228 226 226 226 226
293 290 286 282 277 273 269 266 264 262 259 257 254 253 252 249 248 246 243 241 239 237 235 234 235 233 232 233 231 229 229 228 227 225 224 223 222 221
295 291 287 283 280 274 270 266 263 261 259 256 254 252 250 248 246 245 242 240 237 236 234 233 232 232 230 230 230 230 229 226 223 222 220 219 218 218
297 293 289 285 281 276 271 267 263 260 258 256 254 252 249 247 245 243 241 239 236 234 233 231 231 232 230 228 228 228 225 223 222 221 219 218 217 217
298 295 291 286 281 277 273 269 264 261 258 256 253 251 249 246 244 241 239 236 234 232 231 230 230 230 230 228 228 227 225 222 220 219 218 216 215 216
301 297 293 288 283 279 275 271 266 263 259 256 252 249 247 244 242 240 237 235 233 232 230 229 229 228 227 227 226 226 225 223 220 218 217 215 214 214
303 300 295 291 286 282 278 273 268 264 261 257 252 248 245 243 241 238 236 234 231 230 229 229 228 228 227 225 225 225 225 222 220 218 216 215 213 212
305 301 297 294 290 285 281 276 270 265 261 256 252 247 244 241 239 236 234 232 229 228 227 227 226 227 227 226 226 226 224 221 220 217 216 216 213 212
307 303 300 296 292 287 283 277 271 267 261 256 252 247 243 240 237 234 232 229 228 226 224 224 224 224 224 223 224 225 223 221 220 217 216 215 213 212
310 306 302 298 294 289 284 278 273 268 262 256 251 247 242 238 234 231 229 227 226 224 223 222 222 223 223 223 223 223 223 221 220 217 217 214 212 212
312 309 306 301 296 292 286 281 275 269 262 255 249 245 240 234 230 228 226 225 224 223 222 221 221 222 222 223 222 222 223 222 220 218 217 214 211 212
314 312 308 304 300 295 290 284 278 270 262 255 248 242 236 232 228 225 223 222 222 221 219 220 220 220 221 222 222 221 219 220 219 217 217 214 211 212
316 314 311 308 304 299 293 286 279 272 264 254 246 239 234 228 225 223 221 220 220 219 219 219 219 219 219 219 220 219 218 217 218 216 216 214 212 212
319 316 313 311 308 303 298 290 283 273 264 255 245 238 231 226 224 222 221 220 219 218 218 218 218 218 218 218 218 218 218 217 216 216 216 214 212 213
321 319 316 312 309 305 301 294 286 275 263 252 243 236 230 226 223 221 220 219 217 217 215 216 217 218 218 217 217 217 216 216 216 215 216 214 212 213
321 320 318 315 311 306 302 297 289 277 264 253 243 234 229 226 222 219 218 217 216 215 214 214 215 215 216 216 216 215 214 215 215 215 216 215 214 215
321 320 319 316 313 308 302 298 292 278 264 251 242 235 229 224 219 216 216 215 213 212 212 213 213 213 215 215 216 215 215 214 215 215 216 215 215 217
320 321 320 316 312 309 304 299 294 282 264 252 242 234 227 221 215 213 212 210 209 210 210 211 212 211 213 215 215 214 214 214 214 214 215 215 215 217
319 321 320 317 313 309 303 296 293 283 266 253 241 231 223 216 210 207 205 206 206 207 208 209 210 210 211 212 213 214 214 214 215 214 214 213 213 215
Height
5768 5767 5766 5765 5765 5765 5765 5766 5768 5769 5771 5773 5775 5778 5781 5784 5788 5792 5796 5800 5804 5808 5813 5817 5822 5826 5831 5836 5841 5847 5852 5858 5863 5869 5874 5878 5882 5886
5757 5755 5754 5753 5753 5753 5753 5754 5755 5757 5759 5761 5763 5766 5769 5773 5777 5781 5785 5789 5794 5798 5802 5807 5812 5817 5822 5827 5832 5838 5843 5850 5855 5860 5866 5871 5875 5879
5744 5743 5741 5740 5740 5740 5741 5742 5743 5744 5747 5749 5751 5754 5757 5761 5765 5769 5774 5778 5783 5787 5792 5797 5802 5807 5812 5817 5823 5828 5835 5841 5846 5852 5858 5863 5868 5873
5733 5731 5729 5728 5728 5727 5728 5729 5730 5731 5734 5737 5739 5742 5745 5749 5753 5757 5762 5767 5772 5777 5782 5787 5792 5797 5803 5808 5813 5819 5825 5832 5838 5843 5849 5855 5861 5865
5722 5720 5718 5716 5716 5715 5715 5716 5717 5719 5721 5724 5727 5730 5733 5737 5741 5746 5751 5756 5761 5766 5772 5777 5782 5787 5793 5798 5804 5810 5816 5823 5829 5834 5841 5847 5852 5858
5711 5709 5706 5705 5704 5703 5703 5704 5705 5707 5709 5711 5715 5718 5721 5725 5729 5734 5739 5744 5750 5756 5761 5766 5772 5777 5784 5789 5795 5801 5807 5813 5819 5826 5832 5838 5844 5850
5701 5698 5695 5693 5692 5691 5691 5691 5692 5694 5696 5699 5702 5706 5709 5713 5718 5722 5727 5732 5738 5745 5751 5757 5762 5768 5774 5780 5786 5792 5798 5804 5811 5817 5823 5829 5836 5843
5690 5687 5685 5683 5681 5680 5679 5679 5680 5682 5684 5686 5690 5693 5697 5701 5706 5711 5716 5722 5728 5734 5740 5746 5752 5758 5764 5770 5776 5782 5789 5795 5802 5808 5814 5821 5828 5835
5680 5677 5674 5672 5670 5669 5668 5667 5668 5669 5671 5674 5677 5681 5684 5689 5694 5699 5704 5710 5717 5723 5729 5736 5742 5748 5754 5760 5767 5773 5780 5786 5793 5799 5806 5813 5820 5827
5670 5667 5664 5661 5659 5658 5657 5656 5656 5657 5659 5661 5665 5668 5671 5676 5681 5687 5692 5699 5706 5712 5718 5725 5732 5739 5745 5751 5757 5764 5770 5777 5784 5791 5798 5805 5812 5819
5661 5657 5654 5651 5648 5646 5645 5645 5645 5645 5646 5648 5651 5655 5659 5664 5669 5675 5681 5688 5695 5701 5708 5715 5722 5729 5735 5742 5748 5755 5761 5768 5775 5782 5790 5797 5804 5811
5652 5648 5645 5642 5639 5636 5634 5633 5633 5633 5633 5635 5638 5642 5646 5651 5657 5663 5670 5676 5683 5691 5698 5705 5712 5719 5726 5733 5739 5746 5752 5759 5766 5773 5781 5789 5796 5804
5644 5639 5636 5632 5629 5626 5624 5623 5622 5621 5622 5624 5627 5630 5634 5639 5645 5651 5658 5665 5673 5680 5688 5694 5702 5709 5717 5724 5730 5737 5744 5750 5757 5764 5772 5780 5788 5796
5635 5631 5627 5623 5620 5617 5614 5612 5611 5611 5611 5613 5616 5619 5623 5628 5634 5640 5647 5654 5661 5669 5677 5684 5692 5700 5707 5715 5721 5728 5735 5742 5749 5756 5764 5772 5780 5788
5628 5623 5618 5614 5611 5608 5605 5603 5601 5601 5601 5603 5605 5609 5613 5618 5623 5630 5636 5643 5651 5659 5667 5675 5682 5690 5698 5706 5713 5720 5727 5734 5741 5748 5755 5764 5772 5780
5620 5615 5610 5606 5602 5599 5596 5594 5592 5592 5592 5593 5596 5599 5603 5608 5614 5620 5627 5634 5642 5650 5658 5666 5673 5681 5689 5697 5704 5712 5718 5726 5733 5740 5748 5756 5763 5772
5613 5608 5603 5599 5595 5591 5588 5586 5584 5584 5584 5585 5587 5590 5595 5600 5606 5612 5619 5626 5633 5641 5649 5657 5665 5672 5680 5688 5696 5703 5710 5718 5725 5732 5740 5748 5756 5764
5606 5601 5597 5592 5588 5585 5582 5579 5578 5577 5577 5578 5580 5583 5587 5593 5598 5605 5611 5618 5625 5633 5641 5649 5657 5665 5672 5680 5688 5695 5702 5710 5717 5724 5732 5740 5748 5756
5600 5595 5591 5586 5583 5579 5576 5574 5572 5571 5571 5572 5574 5577 5581 5586 5591 5597 5604 5611 5618 5625 5633 5641 5649 5657 5665 5673 5681 5688 5695 5702 5710 5717 5725 5733 5741 5748
5595 5590 5585 5581 5578 5574 5572 5570 5568 5567 5567 5567 5569 5572 5575 5580 5585 5591 5597 5604 5611 5618 5626 5634 5642 5650 5659 5666 5673 5680 5687 5695 5703 5710 5717 5725 5732 5740
5590 5585 5581 5577 5573 5570 5568 5566 5564 5563 5563 5563 5565 5567 5570 5574 5579 5585 5591 5597 5605 5612 5620 5628 5635 5643 5650 5658 5666 5673 5680 5688 5695 5702 5710 5717 5725 5732
5585 5581 5576 5572 5569 5566 5564 5562 5561 5560 5559 5560 5561 5564 5566 5570 5574 5579 5585 5592 5599 5607 5614 5622 5629 5636 5644 5652 5659 5666 5673 5680 5687 5694 5702 5710 5717 5725
5581 5577 5573 5569 5566 5563 5561 5559 5558 5557 5557 5557 5559 5560 5563 5566 5570 5576 5581 5588 5595 5602 5609 5616 5623 5630 5638 5645 5652 5659 5666 5673 5680 5687 5695 5702 5709 5716